Hourly Data Report for May 02, 2012

All times are specified in Local Standard Time (LST). Add 1 hour to adjust for Daylight Saving Time where and when it is observed.

ST. JOHN'S INTL A
NEWFOUNDLAND

47°37'07.000" N
52°45'09.000" W
140.50 m
8403505
71801
YYT

Download Data

Hourly Data (May 2012)
Hourly Data Report for May 2, 2012
Temp Definition
°C
Dew Point Temp Definition
°C
Rel Hum Definition
%
Wind Dir Definition
10's deg

Wind Spd Definition
km/h
Visibility Definition
km
Stn Press Definition
kPa
Hmdx Definition


Wind Chill Definition


Weather Definition


TIME
00:30 Legend Double Dagger -1.3 -3.3 86 35 16 10.0 100.44   -6 LegendNANA
01:30 Legend Double Dagger -0.8 -3.8 80 34 29 10.0 100.38   -7 LegendNANA
02:30 Legend Double Dagger -1.1 -4.3 79 1 20 10.0 100.35   -7 Cloudy
03:30 Legend Double Dagger -1.4 -4.6 79 35 29 10.0 100.33   -8 LegendNANA
04:30 Legend Double Dagger -1.7 -4.5 81 35 28 10.0 100.29   -8 LegendNANA
05:30 Legend Double Dagger -1.5 -4.5 80 35 26 10.0 100.27   -8 Cloudy
06:30 Legend Double Dagger -1.3 -4.5 79 34 23 10.0 100.25   -7 LegendNANA
07:30 Legend Double Dagger -1.1 -4.0 81 35 33 10.0 100.23   -8 Snow Showers
08:30 Legend Double Dagger -0.6 -3.0 84 34 32 10.0 100.16   -7 Snow Showers
09:30 Legend Double Dagger -1.0 -2.3 91 34 33 1.6 100.15   -8 Snow
10:30 Legend Double Dagger 0.1 -1.2 91 33 34 4.8 100.09     Snow
11:30 Legend Double Dagger 0.3 -1.6 87 34 33 2.4 100.06     Snow
12:30 Legend Double Dagger 0.2 -1.6 88 33 41 3.2 99.96     Snow
13:30 Legend Double Dagger 1.3 -1.1 84 33 46 8.1 99.81     Snow
14:30 Legend Double Dagger -0.4 -1.1 95 32 41 2.0 99.77   -8 Snow
15:30 Legend Double Dagger -0.1 -0.7 96 32 44 1.6 99.65   -8 Snow
16:30 Legend Double Dagger -0.1 -0.7 96 32 42 2.4 99.58   -8 Snow
17:30 Legend Double Dagger 0.1 -0.3 97 32 37 2.0 99.51     Snow
18:30 Legend Double Dagger 0.2 -0.2 97 32 31 10.0 99.44     Snow
19:30 Legend Double Dagger 0.5 0.1 97 34 35 10.0 99.36     Rain,Snow
20:30 Legend Double Dagger 0.4 0.0 97 35 34 9.7 99.29     Rain,Fog
21:30 Legend Double Dagger 0.5 0.1 97 34 28 10.0 99.18     Rain
22:30 Legend Double Dagger 0.7 0.4 98 34 24 9.7 99.10     Moderate Rain,Fog
23:30 Legend Double Dagger 0.9 0.8 99 0 23 0.8 99.06     Rain,Drizzle,Fog

Notes on Data Quality.

Legend

  • E = Estimated
  • M = Missing
  • NA = Not Available
  • ‡ = Partner data that is not subject to review by the National Climate Archives
Date modified: